Weather History for Brookings, SD

Change the Weather History Date:

Tuesday, February 5, 2013

  Actual Average Record
Temperature  
Mean Temperature 24 °F -  
Max Temperature 32 °F 26 °F 53 °F (2005)
Min Temperature 17 °F 9 °F -7 °F (2007)
Degree Days  
Heating Degree Days 40    
Moisture  
Dew Point 23 °F    
Average Humidity 86    
Maximum Humidity 100    
Minimum Humidity 80    
Precipitation  
Precipitation 0.00 in - - ()
Sea Level Pressure  
Sea Level Pressure 29.88 in    
Wind  
Wind Speed 10 mph (WNW)    
Max Wind Speed 23 mph    
Max Gust Speed 26 mph    
Visibility 9 miles    
Events      
Averages and records for this station are not official NWS values.
T = Trace of Precipitation, MM = Missing Value Source: NWS Daily Summary

Daily Weather History Graph

Daily Weather History Graph

Search for Another Location

Airport:

Trip Planner

Search our weather history database for the weather conditions in past years. The results will help you decide how hot, cold, wet, or windy it might be!

Date:

Astronomy

Feb. 05, 2013 Rise Set
Actual Time 7:40 AM CST 5:42 PM CST
Civil Twilight 7:09 AM CST 6:13 PM CST
Nautical Twilight 6:35 AM CST 6:47 PM CST
Astronomical Twilight 6:01 AM CST 7:21 PM CST
Moon 3:27 AM CST (2/5) 12:57 PM CST (2/5)
Length of Visible Light 11h 03m
Length of Day
10h 02m
Waning Crescent, 26% of the Moon is Illuminated
Feb 5
Waning Crescent
Feb 10
New
Feb 17
First Quarter
Feb 25
Full
Mar 4
Last Quarter

Hourly Weather History & Observations

Time (CST) Temp. Windchill Dew Point Humidity Pressure Visibility Wind Dir Wind Speed Gust Speed Precip Events Conditions
12:15 AM 21.2 °F 9.5 °F 19.4 °F 93% 29.71 in 10.0 mi SSW 11.5 mph - N/A   Partly Cloudy
12:35 AM 21.2 °F 10.1 °F 19.4 °F 93% 29.71 in 10.0 mi SSW 10.4 mph - N/A   Scattered Clouds
12:55 AM 21.2 °F 12.6 °F 19.4 °F 93% 29.71 in 10.0 mi SSW 6.9 mph - N/A   Scattered Clouds
1:15 AM 21.2 °F 12.6 °F 19.4 °F 93% 29.70 in 10.0 mi SW 6.9 mph - N/A   Partly Cloudy
1:35 AM 24.8 °F 15.3 °F 23.0 °F 93% 29.69 in 10.0 mi SW 9.2 mph - N/A   Clear
1:55 AM 24.8 °F 16.9 °F 21.2 °F 86% 29.69 in 10.0 mi SW 6.9 mph - N/A   Clear
2:15 AM 26.6 °F - 21.2 °F 80% 29.69 in 10.0 mi Calm Calm - N/A   Clear
2:35 AM 26.6 °F 22.6 °F 23.0 °F 86% 29.69 in 10.0 mi WSW 3.5 mph - N/A   Scattered Clouds
2:55 AM 28.4 °F 24.6 °F 23.0 °F 80% 29.69 in 10.0 mi West 3.5 mph - N/A   Mostly Cloudy
3:15 AM 28.4 °F 22.2 °F 24.8 °F 86% 29.69 in 10.0 mi West 5.8 mph - N/A   Overcast
3:35 AM 28.4 °F 22.2 °F 24.8 °F 86% 29.69 in 10.0 mi WNW 5.8 mph - N/A   Overcast
3:55 AM 30.2 °F 24.3 °F 26.6 °F 86% 29.69 in 10.0 mi WNW 5.8 mph - N/A   Overcast
4:15 AM 30.2 °F 21.9 °F 26.6 °F 86% 29.69 in 10.0 mi WNW 9.2 mph - N/A   Overcast
4:35 AM 30.2 °F 21.9 °F 24.8 °F 80% 29.71 in 10.0 mi NW 9.2 mph - N/A   Overcast
4:55 AM 28.4 °F 23.3 °F 24.8 °F 86% 29.71 in 10.0 mi WNW 4.6 mph - N/A   Mostly Cloudy
5:15 AM 30.2 °F 21.9 °F 24.8 °F 80% 29.72 in 10.0 mi WNW 9.2 mph - N/A   Scattered Clouds
5:35 AM 30.2 °F 21.9 °F 24.8 °F 80% 29.72 in 10.0 mi WNW 9.2 mph - N/A   Clear
5:55 AM 28.4 °F 19.7 °F 24.8 °F 86% 29.72 in 10.0 mi WNW 9.2 mph - N/A   Clear
6:15 AM 28.4 °F 18.0 °F 24.8 °F 86% 29.74 in 10.0 mi NW 12.7 mph - N/A   Clear
6:35 AM 28.4 °F 17.5 °F 26.6 °F 93% 29.74 in 10.0 mi NW 13.8 mph - N/A   Scattered Clouds
6:55 AM 28.4 °F 18.0 °F 26.6 °F 93% 29.76 in 10.0 mi NW 12.7 mph - N/A   Mostly Cloudy
7:15 AM 30.2 °F 19.8 °F 26.6 °F 86% 29.77 in 10.0 mi NW 13.8 mph - N/A   Scattered Clouds
7:35 AM 28.4 °F 17.5 °F 24.8 °F 86% 29.79 in 10.0 mi NW 13.8 mph - N/A   Clear
7:55 AM 28.4 °F 16.6 °F 24.8 °F 86% 29.80 in 10.0 mi NNW 16.1 mph - N/A   Clear
8:15 AM 30.2 °F 18.9 °F 26.6 °F 86% 29.81 in 10.0 mi NNW 16.1 mph - N/A   Scattered Clouds
8:35 AM 30.2 °F 18.9 °F 26.6 °F 86% 29.82 in 10.0 mi NNW 16.1 mph - N/A   Mostly Cloudy
8:55 AM 30.2 °F 19.8 °F 24.8 °F 80% 29.84 in 10.0 mi NW 13.8 mph - N/A   Scattered Clouds
9:15 AM 30.2 °F 20.2 °F 26.6 °F 86% 29.85 in 10.0 mi NW 12.7 mph - N/A   Partly Cloudy
9:35 AM 30.2 °F 18.9 °F 26.6 °F 86% 29.86 in 10.0 mi NW 16.1 mph - N/A   Mostly Cloudy
9:55 AM 30.2 °F 18.5 °F 26.6 °F 86% 29.87 in 10.0 mi WNW 17.3 mph - N/A   Mostly Cloudy
10:15 AM 30.2 °F 18.1 °F 26.6 °F 86% 29.88 in 10.0 mi WNW 18.4 mph - N/A   Mostly Cloudy
10:35 AM 32.0 °F 20.8 °F 26.6 °F 80% 29.89 in 10.0 mi WNW 17.3 mph - N/A   Scattered Clouds
10:55 AM 32.0 °F 20.5 °F 26.6 °F 80% 29.91 in 10.0 mi WNW 18.4 mph - N/A   Mostly Cloudy
11:15 AM 32.0 °F 22.1 °F 28.4 °F 87% 29.91 in 10.0 mi WNW 13.8 mph - N/A   Overcast
11:35 AM 32.0 °F 20.8 °F 28.4 °F 87% 29.93 in 10.0 mi WNW 17.3 mph - N/A   Overcast
11:55 AM 32.0 °F 19.5 °F 28.4 °F 87% 29.94 in 10.0 mi WNW 21.9 mph - N/A   Overcast
12:15 PM 32.0 °F 19.2 °F 26.6 °F 80% 29.94 in 10.0 mi WNW 23.0 mph - N/A   Overcast
12:35 PM 32.0 °F 20.1 °F 26.6 °F 80% 29.95 in 10.0 mi NW 19.6 mph 26.5 mph N/A   Overcast
12:55 PM 30.2 °F 18.1 °F 26.6 °F 86% 29.96 in 10.0 mi NW 18.4 mph 25.3 mph N/A   Overcast
1:15 PM 30.2 °F 18.9 °F 24.8 °F 80% 29.96 in 9.0 mi NW 16.1 mph - N/A   Overcast
1:35 PM 30.2 °F 18.9 °F 24.8 °F 80% 29.97 in 10.0 mi NW 16.1 mph - N/A   Overcast
1:55 PM 30.2 °F 20.2 °F 24.8 °F 80% 29.97 in 10.0 mi NW 12.7 mph - N/A   Overcast
2:15 PM 28.4 °F 17.5 °F 24.8 °F 86% 29.97 in 9.0 mi NW 13.8 mph - N/A   Overcast
2:35 PM 28.4 °F 18.5 °F 24.8 °F 86% 29.97 in 10.0 mi NW 11.5 mph - N/A   Overcast
2:55 PM 28.4 °F 18.5 °F 24.8 °F 86% 29.98 in 9.0 mi NW 11.5 mph - N/A   Overcast
3:15 PM 28.4 °F 18.5 °F 24.8 °F 86% 29.99 in 9.0 mi NW 11.5 mph - N/A   Mostly Cloudy
3:35 PM 28.4 °F 18.5 °F 24.8 °F 86% 29.99 in 10.0 mi WNW 11.5 mph - N/A   Overcast
3:55 PM 28.4 °F 19.7 °F 24.8 °F 86% 30.00 in 10.0 mi NW 9.2 mph - N/A   Overcast
4:15 PM 28.4 °F 21.2 °F 24.8 °F 86% 29.99 in 10.0 mi NNW 6.9 mph - N/A   Overcast
4:35 PM 28.4 °F 19.7 °F 23.0 °F 80% 29.99 in 10.0 mi NW 9.2 mph - N/A   Mostly Cloudy
4:55 PM 26.6 °F 16.8 °F 21.2 °F 80% 30.00 in 10.0 mi WNW 10.4 mph - N/A   Mostly Cloudy
5:15 PM 26.6 °F 16.8 °F 21.2 °F 80% 30.00 in 10.0 mi WNW 10.4 mph - N/A   Overcast
5:35 PM 26.6 °F 20.0 °F 21.2 °F 80% 30.01 in 9.0 mi WNW 5.8 mph - N/A   Overcast
5:55 PM 26.6 °F 19.1 °F 21.2 °F 80% 30.02 in 9.0 mi West 6.9 mph - N/A   Overcast
6:15 PM 26.6 °F 19.1 °F 21.2 °F 80% 30.02 in 10.0 mi NW 6.9 mph - N/A   Overcast
6:35 PM 26.6 °F 20.0 °F 21.2 °F 80% 30.02 in 10.0 mi NW 5.8 mph - N/A   Overcast
6:55 PM 24.8 °F 20.5 °F 21.2 °F 86% 30.02 in 10.0 mi NW 3.5 mph - N/A   Overcast
7:15 PM 24.8 °F 20.5 °F 21.2 °F 86% 30.02 in 10.0 mi North 3.5 mph - N/A   Overcast
7:35 PM 24.8 °F 20.5 °F 19.4 °F 80% 30.02 in 10.0 mi NNE 3.5 mph - N/A   Mostly Cloudy
7:55 PM 24.8 °F - 19.4 °F 80% 30.01 in 10.0 mi Calm Calm - N/A   Mostly Cloudy
8:15 PM 23.0 °F 18.4 °F 19.4 °F 86% 30.01 in 10.0 mi SE 3.5 mph - N/A   Mostly Cloudy
8:35 PM 21.2 °F - 19.4 °F 93% 30.01 in 8.0 mi Calm Calm - N/A   Partly Cloudy
8:55 PM 21.2 °F 14.9 °F 15.8 °F 80% 30.01 in 7.0 mi ESE 4.6 mph - N/A   Clear
9:15 PM 21.2 °F 16.4 °F 17.6 °F 86% 30.01 in 7.0 mi East 3.5 mph - N/A   Clear
9:35 PM 21.2 °F 16.4 °F 21.2 °F 100% 30.02 in 7.0 mi ESE 3.5 mph - N/A   Clear
9:55 PM 17.6 °F 10.7 °F 17.6 °F 100% 30.03 in 6.0 mi ESE 4.6 mph - N/A   Clear
10:15 PM 19.4 °F 14.3 °F 17.6 °F 93% 30.02 in 5.0 mi ESE 3.5 mph - N/A   Clear
10:35 PM 17.6 °F 10.7 °F 15.8 °F 93% 30.02 in 5.0 mi SE 4.6 mph - N/A   Clear
10:55 PM 17.6 °F 9.3 °F 15.8 °F 93% 30.02 in 5.0 mi SE 5.8 mph - N/A   Clear
11:15 PM 19.4 °F 12.8 °F 15.8 °F 86% 30.01 in 5.0 mi ESE 4.6 mph - N/A   Clear
11:35 PM 17.6 °F 9.3 °F 17.6 °F 100% 30.01 in 5.0 mi East 5.8 mph - N/A   Clear
11:55 PM 19.4 °F 11.5 °F 17.6 °F 93% 30.01 in 5.0 mi East 5.8 mph - N/A   Clear